Content
SEND FEEDBACK

Daily
Averages
Monthly
Summary
Mexico

COZUMEL, QUINTANA ROO


Home > North America > Mexico > Quintana Roo
Elevation: 4 meters     Latitude: 20 31N     Longitude: 086 56W

WEATHER
 
SELECT A DAY
Number of Records: 126,703;   Date Range: 1/1/95 - 9/29/14
 
SHARE

PRINT THIS DATA

[ ← Previous Day ]
WEATHER ALMANAC - 1 OCTOBER, 2013
[ Next Day → ]
[ °F ]   °C
Weather ElementAverageHighLow
Temperature24.4 °C29 °C (12:40 pm)19 °C (3:42 am)
Dewpoint21.2 °C23 °C (10:41 pm)19 °C (3:42 am)
Humidity83.7 %100 % (1:40 am)66 % (11:40 am)
Barometer1012.9 hPa1014.9 hPa (9:45 am)1011.2 hPa (7:01 pm)
Wind Speed7.6 km/h18.5 km/h (3:50 pm)
Weather ElementAverage
Visibility11.7 km
Wind DirectionNNE (36.5 °)

Weather ElementTotal
Precipitation---
Cooling Degree Days5.7 (Base 18.3)
Growing Degree Days14 (Base 10)
Averaged from 23 records on 1 October, 2013
WEATHER CONDITIONS BREAKOUT
WIND DIRECTION BREAKOUT
WEATHER BY HOUR - 1 OCTOBER, 2013
[ °F ]   °C
Local TimeTemperatureDewpointHumidityBarometerVisibilityWind DirectionWind SpeedGust SpeedPrecipitationEventsConditions
1:40 AM20 °C20 °C100 %1013.2 hPa11.3 kmCalmClear
2:43 AM20 °C20 °C100 %1012.2 hPa11.3 kmCalmClear
3:42 AM19 °C19 °C100 %1013.2 hPa11.3 kmCalmClear
4:47 AM19 °C19 °C100 %1012.2 hPa11.3 kmCalmClear
5:41 AM19 °C19 °C100 %1012.5 hPa11.3 kmCalmClear
6:42 AM19 °C19 °C100 %1012.2 hPa12.9 kmEast (90°)5.6 km/hClear
7:48 AM21 °C21 °C100 %1013.5 hPa11.3 kmCalmClear
8:44 AM26 °C22 °C78 %1013.9 hPa11.3 kmCalmClear
9:45 AM27 °C22 °C74 %1014.9 hPa11.3 kmNNE (30°)7.4 km/hPartly Cloudy
10:44 AM28 °C22 °C70 %1013.9 hPa11.3 kmNE (50°)13 km/hScattered Clouds
11:40 AM28 °C21 °C66 %1013.9 hPa12.9 kmNNE (30°)13 km/hScattered Clouds
12:40 PM29 °C22 °C66 %1012.2 hPa12.9 kmENE (60°)13 km/hMostly Cloudy
1:41 PM29 °C22 °C66 %1013.2 hPa12.9 kmENE (60°)14.8 km/hMostly Cloudy
2:41 PM29 °C22 °C66 %1012.2 hPa12.9 kmENE (60°)14.8 km/hScattered Clouds
3:50 PM28 °C22 °C70 %1012.9 hPa12.9 kmNE (50°)18.5 km/hScattered Clouds
4:49 PM28 °C21 °C66 %1011.5 hPa12.9 kmNE (50°)18.5 km/hPartly Cloudy
5:43 PM27 °C22 °C74 %1011.5 hPa12.9 kmENE (70°)11.1 km/hClear
7:01 PM25 °C22 °C83 %1011.2 hPa11.3 kmNE (50°)7.4 km/hPartly Cloudy
7:41 PM24 °C22 °C89 %1012.2 hPa11.3 kmCalmPartly Cloudy
8:46 PM24 °C22 °C89 %1012.9 hPa11.3 kmENE (60°)7.4 km/hPartly Cloudy
9:40 PM24 °C22 °C89 %1014.2 hPa11.3 kmENE (60°)5.6 km/hPartly Cloudy
10:41 PM25 °C23 °C89 %1013.5 hPa11.3 kmNE (50°)14.8 km/hPartly Cloudy
11:42 PM24 °C22 °C89 %1013.5 hPa11.3 kmENE (70°)7.4 km/hPartly Cloudy
Hourly data recorded from MMCZ, located 0 kilometers away from Cozumel, Quintana Roo







STORIES FROM OUR PARTNERS